TimeCEST,TemperatureF,Dew PointF,Humidity,Sea Level PressureIn,VisibilityMPH,Wind Direction,Wind SpeedMPH,Gust SpeedMPH,PrecipitationIn,Events,Conditions,WindDirDegrees,DateUTC
2:00 AM,56,53,86,30.04,19,Calm,Calm,,,,,,2012-10-24 00:00:00
6:00 AM,57.2,55.4,94,30.01,6.2,Variable,1.2,-,N/A,,Partly Cloudy,0,2012-10-24 04:00:00
6:30 AM,55.4,55.4,100,30.01,6.2,Calm,Calm,-,N/A,,Partly Cloudy,0,2012-10-24 04:30:00
7:00 AM,57.2,53.6,88,30.01,6.2,Variable,1.2,-,N/A,,Partly Cloudy,0,2012-10-24 05:00:00
7:30 AM,57.2,53.6,88,30.01,6.2,Variable,2.3,-,N/A,,Partly Cloudy,0,2012-10-24 05:30:00
8:00 AM,56,54,89,30.00,9,WNW,4.6,,,,Scattered Clouds,300,2012-10-24 06:00:00
8:00 AM,55.4,53.6,94,30.01,6.2,Variable,2.3,-,N/A,,Partly Cloudy,0,2012-10-24 06:00:00
8:08 AM,55.4,55.4,100,30.01,6.2,Calm,Calm,-,N/A,Rain,Rain Showers,0,2012-10-24 06:08:00
8:30 AM,55.4,55.4,100,30.01,6.2,Variable,2.3,-,N/A,Rain,Light Rain Showers,0,2012-10-24 06:30:00
9:00 AM,57.2,55.4,94,30.01,6.2,WSW,3.5,-,N/A,,Light Drizzle,240,2012-10-24 07:00:00
9:30 AM,57.2,55.4,94,30.01,6.2,ENE,3.5,-,N/A,Rain,Light Rain,70,2012-10-24 07:30:00
10:00 AM,57.2,55.4,94,30.01,6.2,Variable,1.2,-,N/A,Rain,Light Rain,0,2012-10-24 08:00:00
10:30 AM,59.0,55.4,88,30.01,6.2,East,4.6,-,N/A,Rain,Light Rain,100,2012-10-24 08:30:00
11:00 AM,59.0,57.2,94,30.06,6.2,WSW,5.8,-,N/A,Rain,Light Rain,250,2012-10-24 09:00:00
11:30 AM,59.0,57.2,94,30.04,6.2,ESE,3.5,-,N/A,,Scattered Clouds,110,2012-10-24 09:30:00
12:00 PM,62.6,57.2,82,30.01,6.2,East,5.8,-,N/A,,Scattered Clouds,100,2012-10-24 10:00:00
12:30 PM,64.4,59.0,83,30.01,6.2,North,3.5,-,N/A,,Scattered Clouds,360,2012-10-24 10:30:00
1:00 PM,69.8,57.2,64,29.98,6.2,SE,3.5,-,N/A,,Scattered Clouds,130,2012-10-24 11:00:00
1:30 PM,68.0,57.2,68,29.98,6.2,Variable,2.3,-,N/A,,Scattered Clouds,0,2012-10-24 11:30:00
2:00 PM,69.8,59.0,68,29.98,6.2,Variable,2.3,-,N/A,,Scattered Clouds,0,2012-10-24 12:00:00
2:30 PM,71.6,55.4,57,29.98,6.2,South,4.6,-,N/A,,Scattered Clouds,190,2012-10-24 12:30:00
3:00 PM,71.6,55.4,57,29.95,6.2,SSE,10.4,-,N/A,,Scattered Clouds,160,2012-10-24 13:00:00
3:30 PM,71.6,55.4,57,29.95,6.2,South,8.1,-,N/A,,Scattered Clouds,180,2012-10-24 13:30:00
4:30 PM,69.8,55.4,60,29.95,6.2,Variable,1.2,-,N/A,,Scattered Clouds,0,2012-10-24 14:30:00
5:00 PM,69.8,57.2,64,29.95,6.2,Variable,2.3,-,N/A,,Scattered Clouds,0,2012-10-24 15:00:00
5:30 PM,69.8,57.2,64,29.95,6.2,Variable,2.3,-,N/A,,Scattered Clouds,0,2012-10-24 15:30:00
6:00 PM,68.0,57.2,68,29.95,6.2,Variable,2.3,-,N/A,,Scattered Clouds,0,2012-10-24 16:00:00
7:00 PM,66.2,59.0,78,29.95,6.2,Variable,2.3,-,N/A,,Scattered Clouds,0,2012-10-24 17:00:00
7:30 PM,64.4,59.0,83,29.95,6.2,Variable,1.2,-,N/A,,Scattered Clouds,0,2012-10-24 17:30:00
8:00 PM,64,58,75,29.91,16,Calm,Calm,,,,Overcast,,2012-10-24 18:00:00
8:00 PM,64.4,59.0,83,29.95,6.2,Calm,Calm,-,N/A,,Scattered Clouds,0,2012-10-24 18:00:00
8:30 PM,62.6,59.0,88,29.95,6.2,Variable,2.3,-,N/A,,Scattered Clouds,0,2012-10-24 18:30:00
9:00 PM,62.6,59.0,88,29.95,-9999.0,Variable,1.2,-,N/A,,Clear,0,2012-10-24 19:00:00
9:30 PM,62.6,59.0,88,29.95,6.2,Variable,1.2,-,N/A,,Scattered Clouds,0,2012-10-24 19:30:00
10:00 PM,62.6,59.0,88,29.92,6.2,Calm,Calm,-,N/A,,Scattered Clouds,0,2012-10-24 20:00:00
10:30 PM,60.8,59.0,94,29.92,6.2,Variable,1.2,-,N/A,,Scattered Clouds,0,2012-10-24 20:30:00
11:00 PM,60.8,59.0,94,29.92,6.2,Variable,1.2,-,N/A,,Scattered Clouds,0,2012-10-24 21:00:00